Date String (YYYY-MM-DD hh:mm:ss) UTC,Instrument flags,Ambient pressure (hPa),Sample flow (lpm),Bypass flow (lpm),Sample temperature (°C),Ambient temperature (°C),ASC tube jacket temperature (°C),LED temperature (°C),Box temperature (°C),Sample RH (%),Span deviation,Mass concentration (μg/m³),Mass concentration (μg/m³),Mass concentration (μg/m³)
DateTimeUTC,F1_M11,P_M11,Q1_M11,Q2_M11,T1_M11,T2_M11,T3_M11,T4_M11,T5_M11,U1_M11,ZSPAN_M11,X0_M11,X2_M11,X1_M11
2022-04-28 13:00:00,,0821.5,5.00,0.00,25.5,24.9,00.0,34.5,27.3,13.4,0000.9,0029.63,0010.07,0005.57
2022-04-28 13:01:00,,0821.5,5.01,0.00,25.5,24.8,00.0,34.5,27.2,13.8,0000.7,0028.62,0010.00,0005.55
2022-04-28 13:02:00,,0821.5,5.00,0.00,25.5,24.8,00.0,34.5,27.2,14.1,0002.0,0028.16,0010.03,0005.53
2022-04-28 13:03:00,,0821.5,5.00,0.00,25.5,24.8,00.0,34.5,27.2,14.3,0002.5,0028.12,0010.05,0005.51
2022-04-28 13:04:00,,0821.5,5.00,0.00,25.4,24.8,00.0,34.5,27.2,14.6,0002.7,0027.95,0010.09,0005.49
2022-04-28 13:05:00,,0821.4,5.00,0.00,25.4,24.8,00.0,34.5,27.2,14.2,0003.1,0028.11,0010.16,0005.49
2022-04-28 13:06:00,,0821.5,5.00,0.00,25.4,24.9,00.0,34.5,27.3,14.1,0002.4,0028.46,0010.18,0005.47
2022-04-28 13:07:00,,0821.4,5.02,0.00,25.5,24.9,00.0,34.5,27.3,14.0,0002.7,0027.65,0010.04,0005.43
2022-04-28 13:08:00,,0821.5,5.00,0.00,25.5,25.0,00.0,34.5,27.3,14.1,0002.4,0026.98,0009.88,0005.39
2022-04-28 13:09:00,,0821.4,5.00,0.00,25.5,25.0,00.0,34.5,27.4,14.3,0002.0,0026.59,0009.86,0005.36
2022-04-28 13:10:00,,0821.5,5.00,0.00,25.5,25.1,00.0,34.5,27.4,14.8,0002.2,0025.88,0009.82,0005.32
2022-04-28 13:11:00,,0821.6,5.00,0.00,25.6,25.1,00.0,34.5,27.4,15.0,0002.5,0026.17,0009.98,0005.30
2022-04-28 13:12:00,,0821.5,5.00,0.00,25.6,25.1,00.0,34.5,27.5,14.7,0002.7,0025.94,0009.95,0005.27
2022-04-28 13:13:00,,0821.6,4.99,0.00,25.6,25.2,00.0,34.5,27.5,15.3,0001.8,0025.76,0009.90,0005.24
2022-04-28 13:14:00,,0821.6,5.01,0.00,25.7,25.2,00.0,34.5,27.5,15.3,0001.6,0026.15,0009.86,0005.22
2022-04-28 13:15:00,,0821.5,4.99,0.00,25.7,25.3,00.0,34.5,27.6,15.2,0000.6,0027.09,0009.89,0005.20
2022-04-28 13:16:00,,0821.5,5.00,0.00,25.7,25.3,00.0,34.6,27.6,15.1,0000.1,0027.24,0009.84,0005.17
2022-04-28 13:17:00,,0821.6,5.00,0.00,25.7,25.3,00.0,34.6,27.7,15.2,0000.0,0027.55,0009.79,0005.16
2022-04-28 13:18:00,,0821.6,5.00,0.00,25.8,25.3,00.0,34.6,27.7,15.2,-000.2,0028.53,0009.83,0005.16
2022-04-28 13:19:00,,0821.7,5.00,0.00,25.8,25.4,00.0,34.6,27.7,15.3,-000.5,0030.15,0009.97,0005.14
2022-04-28 13:20:00,,0821.6,5.00,0.00,25.8,25.4,00.0,34.6,27.8,15.5,-000.5,0030.76,0010.02,0005.13
2022-04-28 13:21:00,,0821.6,5.00,0.00,25.9,25.5,00.0,34.7,27.8,15.4,-000.8,0031.52,0010.12,0005.13
2022-04-28 13:22:00,,0821.6,5.00,0.00,25.9,25.5,00.0,34.7,27.8,15.2,-001.3,0031.53,0010.09,0005.11
2022-04-28 13:23:00,,0821.6,4.99,0.00,25.9,25.5,00.0,34.7,27.9,14.9,-001.1,0032.01,0010.06,0005.10
2022-04-28 13:24:00,,0821.6,5.01,0.00,26.0,25.5,00.0,34.7,27.9,14.9,-000.7,0032.61,0010.05,0005.10
2022-04-28 13:25:00,,0821.6,5.01,0.00,26.0,25.6,00.0,34.7,27.9,14.9,-000.8,0033.35,0010.09,0005.12
2022-04-28 13:26:00,,0821.6,5.00,0.00,26.0,25.6,00.0,34.8,27.9,15.1,-000.7,0032.46,0010.05,0005.10
2022-04-28 13:27:00,,0821.7,4.99,0.00,26.0,25.6,00.0,34.8,28.0,15.2,-000.4,0031.94,0010.05,0005.11
2022-04-28 13:28:00,,0821.7,4.99,0.00,26.1,25.6,00.0,34.8,28.0,15.2,-000.5,0031.40,0010.11,0005.12
2022-04-28 13:29:00,,0821.7,5.00,0.00,26.1,25.6,00.0,34.8,28.0,14.7,-000.7,0030.69,0010.18,0005.11
2022-04-28 13:30:00,,0821.7,4.99,0.00,26.1,25.6,00.0,34.9,28.0,14.6,-000.1,0029.31,0010.15,0005.12
2022-04-28 13:31:00,,0821.7,5.00,0.00,26.1,25.7,00.0,34.9,28.0,14.7,0000.5,0028.76,0010.14,0005.13
2022-04-28 13:32:00,,0821.7,5.00,0.00,26.1,25.7,00.0,34.9,28.0,14.8,0001.4,0027.83,0009.98,0005.15
2022-04-28 13:33:00,,0821.7,5.02,0.00,26.2,25.7,00.0,34.9,28.1,14.8,0002.3,0027.58,0009.80,0005.15
2022-04-28 13:34:00,,0821.7,4.99,0.00,26.2,25.7,00.0,34.9,28.1,14.8,0002.7,0028.22,0009.82,0005.18
2022-04-28 13:35:00,,0821.7,5.00,0.00,26.2,25.7,00.0,35.0,28.1,14.7,0003.3,0028.41,0009.87,0005.19
2022-04-28 13:36:00,,0821.7,5.00,0.00,26.2,25.7,00.0,35.0,28.1,14.8,0003.5,0028.71,0009.86,0005.21
2022-04-28 13:37:00,,0821.6,4.99,0.00,26.2,25.8,00.0,35.0,28.2,15.0,0003.3,0029.19,0009.85,0005.25
2022-04-28 13:38:00,,0821.6,5.01,0.00,26.3,25.8,00.0,35.0,28.2,15.3,0002.9,0029.41,0009.81,0005.26
2022-04-28 13:39:00,,0821.7,5.00,0.00,26.3,25.8,00.0,35.1,28.2,15.4,0002.9,0029.79,0009.85,0005.26
2022-04-28 13:40:00,,0821.7,5.01,0.00,26.3,25.9,00.0,35.1,28.3,15.3,0003.1,0030.39,0009.86,0005.28
2022-04-28 13:41:00,,0821.7,5.00,0.00,26.3,25.9,00.0,35.1,28.3,14.7,0002.3,0030.78,0009.94,0005.29
2022-04-28 13:42:00,,0821.7,4.99,0.00,26.4,25.9,00.0,35.1,28.3,14.6,0002.3,0031.19,0009.87,0005.31
2022-04-28 13:43:00,,0821.7,4.99,0.00,26.4,25.9,00.0,35.1,28.3,15.0,0002.6,0032.10,0009.98,0005.33
2022-04-28 13:44:00,,0821.7,5.01,0.00,26.4,25.9,00.0,35.2,28.3,15.1,0003.2,0032.64,0010.26,0005.36
2022-04-28 13:45:00,,0821.7,5.01,0.00,26.4,26.0,00.0,35.2,28.4,15.8,0002.1,0031.82,0010.27,0005.35
2022-04-28 13:46:00,,0821.7,5.00,0.00,26.5,26.0,00.0,35.2,28.4,15.8,0000.9,0030.55,0010.21,0005.36
2022-04-28 13:47:00,,0821.7,5.00,0.00,26.5,26.0,00.0,35.2,28.4,15.1,0000.3,0029.81,0010.16,0005.37
2022-04-28 13:48:00,,0821.6,5.01,0.00,26.5,26.0,00.0,35.2,28.4,15.2,0000.3,0029.71,0010.15,0005.36
2022-04-28 13:49:00,,0821.6,5.01,0.00,26.5,26.0,00.0,35.3,28.4,15.5,0001.0,0029.47,0010.20,0005.39
2022-04-28 13:50:00,,0821.6,5.00,0.00,26.5,26.0,00.0,35.3,28.5,15.8,0001.1,0029.12,0010.24,0005.40
2022-04-28 13:51:00,,0821.6,5.00,0.00,26.6,26.0,00.0,35.3,28.5,15.8,0001.5,0027.99,0010.21,0005.41
2022-04-28 13:52:00,,0821.6,5.00,0.00,26.6,26.1,00.0,35.3,28.5,15.5,0002.9,0027.96,0010.19,0005.42
2022-04-28 13:53:00,,0821.5,4.99,0.00,26.6,26.1,00.0,35.4,28.5,15.3,0003.4,0027.60,0010.22,0005.43
2022-04-28 13:54:00,,0821.6,5.01,0.00,26.6,26.1,00.0,35.4,28.5,15.3,0003.3,0026.95,0010.28,0005.43
2022-04-28 13:55:00,,0821.6,4.99,0.00,26.6,26.1,00.0,35.4,28.6,15.2,0003.2,0025.72,0010.05,0005.41
2022-04-28 13:56:00,,0821.6,5.00,0.00,26.7,26.2,00.0,35.4,28.6,15.5,0004.0,0025.88,0010.06,0005.43
2022-04-28 13:57:00,,0821.7,4.99,0.00,26.7,26.2,00.0,35.4,28.6,15.7,0003.9,0025.82,0010.05,0005.44
2022-04-28 13:58:00,,0821.7,5.00,0.00,26.7,26.2,00.0,35.5,28.6,15.6,0004.1,0025.86,0010.03,0005.45
2022-04-28 13:59:00,,0821.7,5.00,0.00,26.7,26.2,00.0,35.5,28.6,15.7,0004.2,0026.26,0010.04,0005.49
